When you browse on this site, cookies collect data to enhance your experience and personalize the content and advertising you see.
Visit our Privacy Policy to learn more. By continuing to use the site, you agree to this use of cookies and data.
  • In Romania
  • List of Countries
  • For 7 days
  • Water Temperature
  • Satellite Maps
  • Weather Map
  • Weather Widgets
  • user-avatar
    Login

    Hourly Weather Shumen

    Today, 25 May, Saturday

    Time Temperature Precipitation Wind Pressure Humidity
    00:00 +11°C° 0 mm 4 mps 725 mmHg 88%
    01:00 +11°C° 0 mm 4 mps 725 mmHg 88%
    02:00 +10°C° 0 mm 3 mps 725 mmHg 90%
    03:00 +10°C° 0 mm 4 mps 725 mmHg 90%
    04:00 +10°C° 0 mm 4 mps 725 mmHg 90%
    05:00 +10°C° 0 mm 4 mps 726 mmHg 90%
    06:00 +12°C° 0 mm 5 mps 726 mmHg 86%
    07:00 +13°C° 0 mm 5 mps 727 mmHg 82%
    08:00 +15°C° 0 mm 6 mps 727 mmHg 76%
    09:00 +16°C° 0 mm 6 mps 727 mmHg 73%
    10:00 +19°C° 0 mm 6 mps 727 mmHg 70%
    11:00 +20°C° 0 mm 5 mps 727 mmHg 67%
    12:00 +20°C° 0.5 mm 5 mps 727 mmHg 66%
    13:00 +21°C° 0.5 mm 5 mps 727 mmHg 65%
    14:00 +21°C° 0.5 mm 5 mps 727 mmHg 65%
    15:00 +21°C° 0.3 mm 5 mps 727 mmHg 66%
    16:00 +21°C° 0.3 mm 5 mps 727 mmHg 67%
    17:00 +21°C° 0.3 mm 5 mps 727 mmHg 69%
    18:00 +19°C° 0.1 mm 4 mps 727 mmHg 75%
    19:00 +17°C° 0.1 mm 4 mps 727 mmHg 81%
    20:00 +16°C° 0.1 mm 3 mps 727 mmHg 87%
    21:00 +14°C° 0 mm 3 mps 727 mmHg 87%
    22:00 +14°C° 0 mm 3 mps 728 mmHg 88%
    23:00 +13°C° 0 mm 3 mps 728 mmHg 88%

    Tomorrow, 26 May, Sunday

    Time Temperature Precipitation Wind Pressure Humidity
    00:00 +13°C° 0 mm 3 mps 728 mmHg 88%
    01:00 +14°C° 0 mm 2 mps 729 mmHg 87%
    02:00 +14°C° 0 mm 2 mps 729 mmHg 87%
    03:00 +13°C° 0 mm 2 mps 729 mmHg 87%
    04:00 +13°C° 0 mm 2 mps 729 mmHg 88%
    05:00 +13°C° 0 mm 2 mps 729 mmHg 89%
    06:00 +15°C° 0 mm 2 mps 729 mmHg 82%
    07:00 +17°C° 0 mm 2 mps 730 mmHg 76%
    08:00 +19°C° 0 mm 3 mps 730 mmHg 70%
    09:00 +21°C° 0 mm 2 mps 731 mmHg 65%
    10:00 +23°C° 0 mm 2 mps 731 mmHg 60%
    11:00 +24°C° 0 mm 2 mps 731 mmHg 56%
    12:00 +25°C° 0 mm 2 mps 731 mmHg 53%
    13:00 +25°C° 0 mm 2 mps 731 mmHg 51%
    14:00 +26°C° 0 mm 2 mps 731 mmHg 49%
    15:00 +26°C° 0 mm 2 mps 731 mmHg 50%
    16:00 +26°C° 0 mm 1 mps 730 mmHg 51%
    17:00 +26°C° 0 mm 1 mps 730 mmHg 51%
    18:00 +24°C° 0 mm 1 mps 730 mmHg 59%
    19:00 +21°C° 0 mm 1 mps 730 mmHg 67%
    20:00 +19°C° 0 mm 1 mps 730 mmHg 75%
    21:00 +18°C° 0 mm 1 mps 730 mmHg 79%
    22:00 +16°C° 0 mm 1 mps 731 mmHg 83%
    23:00 +16°C° 0 mm 2 mps 731 mmHg 87%

    Day after tomorrow, 27 May, Monday

    Time Temperature Precipitation Wind Pressure Humidity
    00:00 +15°C° 0 mm 1 mps 731 mmHg 87%
    01:00 +15°C° 0 mm 1 mps 731 mmHg 88%
    02:00 +15°C° 0 mm 1 mps 730 mmHg 88%
    03:00 +14°C° 0 mm 1 mps 730 mmHg 89%
    04:00 +14°C° 0 mm 1 mps 730 mmHg 89%
    05:00 +14°C° 0 mm 1 mps 730 mmHg 90%
    06:00 +16°C° 0 mm 2 mps 731 mmHg 83%
    07:00 +19°C° 0 mm 2 mps 731 mmHg 77%
    08:00 +21°C° 0 mm 2 mps 732 mmHg 70%
    09:00 +22°C° 0 mm 3 mps 732 mmHg 65%
    10:00 +25°C° 0 mm 4 mps 732 mmHg 61%
    11:00 +26°C° 0 mm 4 mps 732 mmHg 56%
    12:00 +26°C° 0 mm 4 mps 732 mmHg 55%
    13:00 +27°C° 0 mm 5 mps 731 mmHg 54%
    14:00 +27°C° 0 mm 5 mps 731 mmHg 52%
    15:00 +26°C° 0 mm 5 mps 731 mmHg 55%
    16:00 +25°C° 0 mm 5 mps 730 mmHg 57%
    17:00 +23°C° 0 mm 5 mps 730 mmHg 59%
    18:00 +21°C° 0 mm 4 mps 730 mmHg 68%
    19:00 +19°C° 0 mm 3 mps 730 mmHg 77%
    20:00 +16°C° 0 mm 3 mps 730 mmHg 86%
    21:00 +15°C° 0 mm 2 mps 730 mmHg 88%
    22:00 +14°C° 0 mm 2 mps 730 mmHg 91%
    23:00 +14°C° 0 mm 2 mps 730 mmHg 93%

    28 May, Tuesday

    Time Temperature Precipitation Wind Pressure Humidity
    00:00 +13°C° 0 mm 2 mps 730 mmHg 94%
    01:00 +13°C° 0 mm 2 mps 729 mmHg 94%
    02:00 +13°C° 0 mm 2 mps 729 mmHg 94%
    03:00 +13°C° 0 mm 2 mps 729 mmHg 94%
    04:00 +12°C° 0 mm 2 mps 728 mmHg 94%
    05:00 +12°C° 0 mm 2 mps 728 mmHg 93%
    06:00 +14°C° 0 mm 3 mps 728 mmHg 86%
    07:00 +17°C° 0 mm 3 mps 728 mmHg 78%
    08:00 +19°C° 0 mm 4 mps 728 mmHg 71%
    09:00 +21°C° 0 mm 4 mps 728 mmHg 66%
    10:00 +23°C° 0 mm 5 mps 728 mmHg 61%
    11:00 +26°C° 0 mm 5 mps 728 mmHg 56%
    12:00 +27°C° 0 mm 5 mps 728 mmHg 54%
    13:00 +28°C° 0 mm 5 mps 727 mmHg 52%
    14:00 +29°C° 0 mm 6 mps 727 mmHg 50%
    15:00 +29°C° 0 mm 5 mps 726 mmHg 53%
    16:00 +28°C° 0 mm 5 mps 726 mmHg 56%
    17:00 +28°C° 0 mm 5 mps 725 mmHg 59%
    18:00 +25°C° 0 mm 4 mps 725 mmHg 67%
    19:00 +21°C° 0 mm 4 mps 725 mmHg 75%
    20:00 +19°C° 0 mm 3 mps 725 mmHg 82%
    21:00 +18°C° 0 mm 3 mps 725 mmHg 82%
    22:00 +17°C° 0 mm 4 mps 725 mmHg 81%
    23:00 +15°C° 0 mm 4 mps 725 mmHg 80%

    29 May, Wednesday

    Time Temperature Precipitation Wind Pressure Humidity
    00:00 +16°C° 0 mm 3 mps 725 mmHg 77%
    01:00 +14°C° 0 mm 3 mps 725 mmHg 74%
    02:00 +14°C° 0 mm 3 mps 725 mmHg 71%
    03:00 +14°C° 0 mm 2 mps 725 mmHg 73%
    04:00 +14°C° 0 mm 2 mps 725 mmHg 75%
    05:00 +14°C° 0 mm 2 mps 725 mmHg 77%
    06:00 +17°C° 0 mm 2 mps 725 mmHg 72%
    07:00 +19°C° 0 mm 2 mps 726 mmHg 66%
    08:00 +23°C° 0 mm 2 mps 726 mmHg 61%
    09:00 +24°C° 0 mm 2 mps 727 mmHg 57%
    10:00 +26°C° 0 mm 2 mps 727 mmHg 53%
    11:00 +27°C° 0 mm 2 mps 727 mmHg 49%
    12:00 +28°C° 0 mm 2 mps 727 mmHg 47%
    13:00 +28°C° 0 mm 2 mps 727 mmHg 46%
    14:00 +29°C° 0 mm 2 mps 727 mmHg 45%
    15:00 +28°C° 0 mm 2 mps 727 mmHg 48%
    16:00 +28°C° 0 mm 1 mps 727 mmHg 50%
    17:00 +28°C° 0 mm 1 mps 726 mmHg 53%
    18:00 +26°C° 0 mm 1 mps 727 mmHg 57%
    19:00 +25°C° 0 mm 1 mps 727 mmHg 61%
    20:00 +21°C° 0 mm 0 mps 727 mmHg 65%
    21:00 +20°C° 0 mm 0 mps 727 mmHg 70%
    22:00 +21°C° 0 mm 1 mps 727 mmHg 75%
    23:00 +20°C° 0 mm 1 mps 728 mmHg 79%

    30 May, Thursday

    Time Temperature Precipitation Wind Pressure Humidity
    00:00 +19°C° 0 mm 1 mps 728 mmHg 80%
    01:00 +19°C° 0 mm 1 mps 728 mmHg 81%
    02:00 +18°C° 0 mm 2 mps 728 mmHg 81%
    03:00 +18°C° 0 mm 2 mps 728 mmHg 83%
    04:00 +17°C° 0 mm 2 mps 728 mmHg 84%
    05:00 +17°C° 0 mm 2 mps 729 mmHg 85%
    06:00 +18°C° 0 mm 3 mps 729 mmHg 81%
    07:00 +20°C° 0 mm 3 mps 729 mmHg 76%
    08:00 +21°C° 0 mm 3 mps 730 mmHg 71%
    09:00 +24°C° 0.2 mm 3 mps 730 mmHg 66%
    10:00 +25°C° 0.2 mm 4 mps 730 mmHg 61%
    11:00 +26°C° 0.2 mm 4 mps 730 mmHg 56%
    12:00 +27°C° 0.1 mm 4 mps 730 mmHg 54%
    13:00 +27°C° 0.1 mm 3 mps 730 mmHg 52%
    14:00 +28°C° 0.1 mm 3 mps 730 mmHg 50%
    15:00 +28°C° 0.1 mm 2 mps 729 mmHg 51%
    16:00 +27°C° 0.1 mm 2 mps 729 mmHg 52%
    17:00 +27°C° 0.1 mm 1 mps 729 mmHg 53%
    18:00 +25°C° 0.2 mm 1 mps 729 mmHg 60%
    19:00 +23°C° 0.2 mm 1 mps 729 mmHg 66%
    20:00 +22°C° 0.2 mm 1 mps 729 mmHg 73%
    21:00 +21°C° 0.2 mm 1 mps 729 mmHg 76%
    22:00 +20°C° 0.2 mm 1 mps 729 mmHg 78%
    23:00 +19°C° 0.2 mm 1 mps 729 mmHg 81%
    Show more